Location: Girdwood
(60.9430°N, 149.1660°W)
Time: 01:02:54
(UTC-09:00)

Iridium 86 - Visible Passes

Search period start: 18 January 2017 00:00
Search period end: 28 January 2017 00:00
Orbit: 776 x 779 km, 86.4° (Epoch: 17 January)

Date Brightness Start Highest point End Pass type
(mag) Time Alt. Az. Time Alt. Az. Time Alt. Az.
18 Jan 8.2 05:51:06 10° NNE 05:54:26 17° NE 05:57:46 10° E visible
18 Jan 6.1 07:31:09 10° N 07:36:21 59° ENE 07:41:31 10° SSE visible
19 Jan 8.4 05:18:17 10° NNE 05:20:19 12° NE 05:22:21 10° ENE visible
19 Jan 6.8 06:57:40 10° N 07:02:37 40° ENE 07:07:33 10° SE visible
19 Jan 5.8 08:38:29 10° NNW 08:43:32 50° W 08:48:33 10° SSW visible
19 Jan 7.9 20:15:33 11° NNE 20:15:33 11° NNE 20:15:41 10° NNE visible
19 Jan 8.1 21:55:59 12° N 21:55:59 12° N 21:56:28 10° N visible
20 Jan 7.5 06:24:16 10° N 06:28:48 28° ENE 06:33:17 10° SE visible
20 Jan 5.5 08:04:50 10° N 08:10:04 74° W 08:15:17 10° S visible
20 Jan 7.6 19:41:29 12° NNE 19:41:29 12° NNE 19:41:57 10° NNE visible
20 Jan 7.7 21:21:54 16° N 21:21:54 16° N 21:22:59 10° N visible
20 Jan 8.4 23:02:19 12° NNW 23:02:19 12° NNW 23:03:00 10° NNW visible
21 Jan 8.0 05:50:59 10° N 05:54:51 20° ENE 05:58:42 10° ESE visible
21 Jan 5.7 07:31:15 10° N 07:36:31 75° E 07:41:45 10° SSE visible
21 Jan 7.4 19:07:09 14° NNE 19:07:09 14° NNE 19:08:07 10° NNE visible
21 Jan 7.2 20:47:33 23° N 20:47:33 23° N 20:49:28 10° N visible
21 Jan 8.0 22:27:56 17° NNW 22:27:56 17° NNW 22:29:49 10° N visible
22 Jan 8.3 05:17:53 10° NNE 05:20:48 15° NE 05:23:42 10° E visible
22 Jan 6.4 06:57:44 10° N 07:02:52 51° ENE 07:07:57 10° SSE visible
22 Jan 6.0 08:38:42 10° NNW 08:43:33 39° W 08:48:21 10° SSW visible
22 Jan 7.1 18:32:08 15° NE 18:32:08 15° NE 18:34:03 10° NNE visible
22 Jan 6.1 20:05:29 10° S 20:12:25 41° NNE 20:15:52 10° N visible
22 Jan 7.2 21:47:11 10° SW 21:52:40 30° NW 21:56:29 10° N visible
23 Jan 8.6 04:45:31 10° NNE 04:46:37 11° NE 04:47:44 10° ENE visible
23 Jan 7.1 06:24:17 10° N 06:29:05 35° ENE 06:33:52 10° SE visible
23 Jan 5.6 08:05:01 10° N 08:10:09 58° W 08:15:16 10° SSW visible
23 Jan 7.2 17:56:07 10° E 17:57:45 11° ENE 17:59:24 10° NE visible
23 Jan 5.8 19:32:18 10° SSE 19:37:14 44° E 19:42:11 10° NNE visible
23 Jan 6.5 21:13:01 10° SSW 21:18:02 45° WNW 21:23:04 10° N visible
23 Jan 8.3 22:57:44 10° WNW 23:00:13 13° NW 23:02:43 10° NNW visible
24 Jan 7.7 05:50:55 10° N 05:55:13 25° ENE 05:59:29 10° ESE visible
24 Jan 5.5 07:31:23 10° N 07:36:39 86° W 07:41:53 10° S visible
24 Jan 6.2 18:59:25 10° SE 19:03:54 30° ENE 19:08:25 10° NNE visible
24 Jan 5.8 20:39:08 10° SSW 20:44:20 67° W 20:49:34 10° N visible
24 Jan 8.0 22:22:32 10° W 22:26:08 18° NW 22:29:44 10° NNW visible
25 Jan 8.2 05:17:41 10° NNE 05:21:13 18° NE 05:24:45 10° E visible
25 Jan 6.0 06:57:49 10° N 07:03:03 65° E 07:08:15 10° SSE visible
25 Jan 6.7 18:26:52 10° ESE 18:30:41 21° ENE 18:34:31 10° NNE visible
25 Jan 5.4 20:05:31 10° S 20:10:44 84° E 20:16:01 10° N visible
25 Jan 7.5 21:47:50 10° WSW 21:52:09 25° WNW 21:56:30 10° N visible
26 Jan 8.5 04:44:44 10° NNE 04:47:08 13° NE 04:49:30 10° ENE visible
26 Jan 6.7 06:24:19 10° N 06:29:21 44° ENE 06:34:20 10° SE visible
26 Jan 5.8 08:05:11 10° NNW 08:10:10 46° W 08:15:08 10° SSW visible
26 Jan 7.0 17:54:49 10° E 17:57:34 15° ENE 18:00:19 10° NNE visible
26 Jan 5.5 19:32:10 10° SSE 19:37:15 56° E 19:42:23 10° NNE visible
26 Jan 7.0 21:13:28 10° SW 21:18:17 36° WNW 21:23:07 10° N visible
26 Jan 8.6 22:59:22 10° WNW 23:00:43 11° NW 23:02:04 10° NNW visible
27 Jan 7.4 05:50:55 10° N 05:55:32 30° ENE 06:00:08 10° SE visible
27 Jan 5.5 07:31:31 10° N 07:36:45 68° W 07:41:56 10° S visible
27 Jan 6.0 18:59:06 10° SSE 19:03:52 38° E 19:08:41 10° NNE visible
27 Jan 6.2 20:39:25 10° SSW 20:44:31 52° WNW 20:49:39 10° N visible
27 Jan 8.3 22:23:34 10° W 22:26:33 15° NW 22:29:34 10° NNW visible
